Wind_Speed
16 16 15 15 15 15 15 15 15 16 18 19 19 20 20 20 21 22 22 23 23 23 22 22 22 21 21 21 21 21 21 21 20 21 21 20 20 21 20 20 21 22 22 22
15 15 14 14 15 15 15 16 16 16 18 18 20 20 21 21 22 22 22 23 23 22 22 22 22 21 21 21 21 21 20 21 20 21 21 20 19 20 20 19 19 20 21 21
13 13 12 13 14 14 14 14 15 16 17 18 19 20 21 22 22 22 22 23 23 22 21 21 20 20 20 20 20 20 20 19 19 19 19 18 18 18 18 17 17 17 17 17
12 12 13 13 13 13 13 14 15 16 17 18 19 20 20 21 22 22 22 22 22 21 20 19 20 19 19 19 18 17 17 17 17 17 17 16 16 15 16 15 15 14 14 15
12 12 12 12 12 11 12 13 14 15 17 18 19 20 21 22 22 22 22 21 21 19 19 19 18 18 17 16 15 14 14 14 14 14 13 13 13 14 13 13 13 13 13 14
11 11 11 12 11 11 11 12 13 14 16 17 19 20 21 21 21 21 20 19 18 18 17 16 16 15 14 13 12 11 11 11 10 10 10 10 11 11 11 11 11 11 11 11
9 10 11 11 10 10 10 12 13 14 16 17 19 20 20 20 20 19 18 16 15 14 13 13 13 12 11 10 9 9 9 9 8 8 9 8 9 9 9 9 9 9 9 9
8 9 9 9 9 9 10 12 13 14 15 16 18 19 19 18 17 16 15 13 12 11 11 10 9 9 8 7 7 7 7 6 7 7 7 7 7 7 7 6 7 7 7 7
7 8 7 7 8 9 10 11 12 14 15 16 17 17 17 16 14 13 13 11 10 8 7 7 7 5 5 4 4 5 5 5 5 4 4 5 5 4 4 4 4 5 5 5
7 7 7 7 7 8 9 11 12 13 14 15 15 16 14 13 12 12 10 8 6 5 4 4 2 2 2 2 3 3 4 4 3 3 3 3 2 2 2 2 2 3 3 4
6 7 6 5 6 7 9 10 12 12 13 13 14 14 13 12 11 9 8 6 4 3 2 1 0 1 2 3 4 4 5 5 4 4 3 3 2 2 1 1 1 1 1 1
6 6 5 5 6 7 8 9 9 10 11 12 12 12 12 11 10 8 7 5 4 3 2 2 2 3 4 5 6 6 6 6 5 5 5 4 4 4 3 3 3 3 3 3
5 5 5 5 5 6 7 7 8 9 11 11 11 11 10 10 8 7 6 6 5 4 4 4 4 5 6 6 7 7 7 7 6 6 6 6 6 6 6 6 5 5 5 6
4 4 3 3 4 5 6 7 8 9 10 10 10 10 10 9 8 7 6 6 6 6 6 6 7 8 8 8 8 8 8 8 8 8 8 8 7 7 7 7 8 8 8 8
4 3 3 2 2 3 5 6 8 9 9 9 9 9 9 9 8 8 8 8 8 8 8 8 9 9 9 10 10 10 10 10 10 10 9 9 9 9 10 10 10 10 10 10
3 3 2 2 1 3 5 6 7 7 8 8 9 9 9 9 9 9 9 9 9 9 10 10 10 10 11 11 11 11 11 11 11 11 12 12 12 13 13 12 12 12 12 11
3 3 3 3 3 3 4 6 6 6 6 7 8 8 9 9 9 10 10 10 10 10 11 12 12 12 13 13 13 13 13 13 13 14 15 15 15 14 14 14 14 13 13 13
3 3 4 3 3 3 4 5 4 4 4 5 6 7 8 9 9 10 10 11 11 12 12 13 13 13 14 14 15 15 15 16 16 16 16 16 15 15 15 15 14 14 14 14
4 4 4 4 4 4 3 2 2 3 3 4 5 7 8 8 9 10 11 11 12 13 13 14 14 15 15 16 16 16 16 17 16 16 16 16 15 15 14 14 14 14 13 13
5 4 4 3 3 3 2 1 1 2 3 4 5 6 7 8 9 10 11 11 12 13 14 14 15 15 15 15 16 16 16 16 16 16 15 15 14 14 14 14 14 14 14 13
6 5 5 4 4 3 3 2 1 2 3 4 5 6 7 7 8 10 11 12 12 13 13 14 14 15 15 15 15 15 15 15 15 15 15 14 14 14 14 14 14 14 14 14
7 6 6 5 5 4 4 3 3 3 3 4 5 6 7 7 8 9 11 12 12 12 13 13 14 14 14 14 14 14 15 14 14 14 14 14 14 14 14 14 14 14 13 13
8 8 7 6 6 5 5 4 4 4 4 5 6 6 7 7 8 9 10 11 11 12 12 13 13 13 13 14 14 14 14 14 14 14 14 14 13 13 13 13 13 13 12 12
10 10 9 9 8 7 6 6 6 6 6 6 6 6 6 7 8 8 9 10 10 11 11 12 12 13 13 13 14 14 14 14 14 13 13 13 13 13 13 12 12 12 11 11
13 12 12 11 10 10 9 8 7 7 7 7 7 7 7 7 8 8 8 9 9 10 10 11 12 12 12 13 13 13 13 13 13 12 12 12 12 12 11 11 10 10 10 10
15 15 14 14 13 12 11 10 10 9 9 8 8 8 8 9 9 8 8 9 9 9 10 10 11 11 11 11 12 12 12 12 12 11 11 11 10 10 9 9 8 8 8 8
18 18 17 17 16 15 14 13 12 12 11 10 10 10 10 10 10 9 9 9 9 9 9 9 10 10 10 10 10 10 10 10 10 10 9 8 8 7 7 7 6 6 7 7
Wind_Direction
239 243 248 251 256 261 267 270 273 277 281 283 286 287 288 288 289 290 291 292 291 289 287 287 286 285 284 283 280 280 278 275 272 269 269 268 267 265 262 261 259 257 257 257
241 245 249 253 257 261 268 274 277 280 284 287 290 292 292 293 293 292 292 293 295 293 289 287 285 284 284 283 282 279 277 274 271 270 268 268 267 266 264 264 260 258 258 257
238 245 250 254 256 262 271 277 281 284 288 291 294 295 296 296 295 295 293 293 294 294 291 287 285 285 284 284 282 279 276 273 270 269 268 267 268 265 265 265 262 260 259 258
234 242 248 254 257 265 274 278 283 287 291 295 299 301 301 301 299 298 295 293 293 291 289 287 287 287 286 284 280 279 276 272 269 266 264 265 265 264 264 263 262 260 260 260
232 240 248 255 261 268 276 282 286 292 295 299 303 305 305 303 302 301 298 296 294 291 289 289 288 286 284 282 278 276 273 271 268 264 261 261 260 261 261 259 259 256 257 259
231 237 245 254 260 267 275 282 290 297 302 304 307 308 308 307 305 304 302 299 296 293 291 290 289 288 283 279 276 273 270 266 260 259 257 255 256 259 260 257 253 253 255 258
229 235 243 252 260 270 278 286 294 301 306 310 312 312 312 311 310 308 306 303 298 295 294 290 288 284 281 276 271 269 266 258 252 251 249 249 252 254 258 255 252 251 252 257
224 232 242 251 260 270 281 290 298 305 310 315 317 317 315 314 313 312 310 308 301 295 292 288 286 283 277 269 265 263 257 246 244 242 242 242 243 248 249 252 253 250 250 258
226 235 244 254 267 279 287 295 301 309 314 319 322 322 320 319 318 318 318 312 303 296 294 293 290 281 268 260 249 237 230 221 220 223 227 226 228 232 235 242 245 248 257 266
231 239 247 257 272 286 295 300 305 313 319 324 328 328 328 327 328 328 328 321 314 309 305 301 284 255 238 209 186 185 186 183 184 187 188 192 199 205 222 242 245 258 271 279
237 242 247 259 280 294 302 308 314 321 326 329 333 335 337 339 342 343 343 340 334 335 343 358 168 153 135 140 146 139 137 136 136 139 147 155 150 142 152 214 233 224 249 306
235 240 245 264 286 299 312 319 323 329 334 335 338 341 344 348 352 359 4 11 20 34 65 87 104 122 127 129 127 127 131 130 127 128 129 127 122 115 111 114 110 104 88 74
223 236 257 276 290 306 318 326 331 338 342 346 348 350 355 359 6 14 20 30 42 63 81 92 103 113 120 126 127 125 126 125 124 122 119 116 114 111 107 103 97 93 89 88
212 225 250 278 292 311 324 333 340 346 350 354 357 2 8 14 23 28 38 52 63 75 86 97 104 110 116 119 117 118 119 118 117 117 116 111 107 103 99 95 94 94 92 90
200 211 225 247 284 320 333 338 344 350 355 1 7 12 18 27 34 44 56 66 73 80 91 100 106 109 113 118 118 115 112 110 109 109 108 106 105 102 98 97 96 94 91 88
197 208 216 224 274 318 335 342 348 356 3 10 17 24 32 40 47 56 66 74 79 85 92 98 105 109 111 112 113 112 110 108 107 106 105 105 104 101 98 97 96 95 92 88
206 215 234 256 287 313 332 342 345 355 5 14 26 35 42 50 58 64 72 79 87 92 94 98 104 106 108 108 109 109 108 106 103 103 104 104 104 102 99 97 95 92 89 86
219 230 239 253 278 302 328 342 350 2 11 22 34 45 54 61 65 71 77 84 89 92 96 100 104 105 107 108 108 108 107 107 107 106 105 104 103 101 99 96 93 90 89 87
230 236 239 247 271 289 309 339 360 19 32 45 58 66 69 71 73 79 85 88 91 96 100 104 105 107 109 109 109 109 109 109 108 107 106 104 102 99 97 95 93 91 89 87
236 239 241 244 256 263 268 293 38 60 61 67 75 83 83 81 82 85 89 93 97 101 102 104 106 109 110 111 112 112 111 111 110 108 107 104 102 100 98 96 94 92 89 87
237 236 235 236 238 238 234 220 160 117 103 94 96 99 98 95 92 92 95 99 102 103 104 106 108 111 112 113 113 112 111 110 110 109 107 105 103 100 98 96 93 91 89 86
232 230 227 224 223 219 213 202 178 152 135 123 118 112 110 108 106 103 104 106 107 107 108 108 109 111 112 113 114 113 113 112 111 110 107 106 104 101 99 96 94 91 87 83
228 224 220 217 214 208 201 193 181 169 157 146 137 130 125 122 119 116 114 113 112 111 111 112 112 112 113 114 114 114 115 114 113 111 109 108 105 103 100 97 93 89 85 80
227 222 221 220 216 210 205 199 192 182 172 163 156 149 144 140 135 131 128 124 120 117 116 115 115 116 116 116 116 116 116 115 114 113 111 109 106 103 100 96 91 86 81 76
227 224 223 223 219 214 210 205 201 194 186 181 175 168 162 156 150 145 140 136 133 129 126 123 122 121 121 120 119 118 117 116 115 114 113 110 107 104 99 94 88 83 77 71
227 226 224 222 219 217 214 210 208 205 202 198 191 183 177 172 167 160 154 149 144 140 137 134 131 129 128 126 124 123 121 120 118 116 114 111 107 103 96 90 83 76 69 62
229 227 225 222 220 219 217 215 214 213 211 207 203 198 193 189 185 181 175 169 164 159 155 151 146 143 140 137 134 130 127 124 122 119 116 112 107 101 94 86 77 68 59 50
Height
5777 5778 5780 5781 5782 5782 5782 5782 5782 5782 5779 5777 5775 5774 5772 5770 5768 5766 5764 5762 5759 5757 5756 5754 5753 5752 5751 5750 5749 5749 5748 5748 5748 5748 5747 5747 5747 5747 5748 5748 5748 5749 5749 5750
5774 5775 5776 5777 5778 5778 5778 5778 5777 5776 5775 5772 5770 5768 5766 5764 5762 5759 5757 5755 5753 5751 5749 5748 5746 5745 5744 5743 5743 5742 5742 5742 5742 5742 5742 5742 5742 5742 5742 5743 5743 5743 5744 5744
5770 5771 5773 5774 5774 5774 5774 5773 5773 5771 5770 5767 5765 5763 5761 5758 5756 5753 5751 5749 5747 5745 5743 5741 5740 5738 5738 5737 5736 5736 5736 5736 5736 5736 5736 5736 5736 5737 5737 5737 5738 5738 5739 5739
5767 5769 5770 5772 5770 5770 5770 5769 5768 5766 5765 5762 5760 5758 5755 5752 5750 5747 5745 5743 5740 5738 5737 5735 5734 5732 5732 5731 5730 5730 5730 5730 5730 5730 5730 5731 5731 5732 5733 5733 5733 5734 5734 5735
5764 5765 5767 5767 5767 5766 5766 5765 5764 5762 5760 5758 5755 5752 5750 5747 5744 5741 5739 5736 5734 5732 5731 5729 5728 5727 5726 5725 5725 5725 5725 5725 5725 5725 5726 5726 5727 5728 5728 5729 5729 5730 5730 5731
5761 5762 5763 5764 5763 5763 5764 5762 5760 5758 5756 5753 5750 5748 5745 5741 5738 5735 5732 5730 5728 5726 5725 5724 5723 5722 5721 5721 5721 5721 5721 5721 5721 5721 5722 5723 5723 5724 5725 5725 5726 5726 5727 5727
5758 5759 5760 5760 5760 5761 5761 5760 5757 5754 5752 5749 5746 5743 5740 5736 5732 5730 5727 5725 5723 5722 5721 5720 5719 5718 5717 5717 5717 5717 5717 5717 5718 5719 5719 5720 5721 5721 5722 5722 5723 5723 5724 5724
5755 5756 5759 5757 5757 5758 5757 5755 5753 5751 5748 5745 5742 5738 5735 5731 5728 5725 5723 5721 5719 5718 5717 5716 5715 5715 5714 5714 5714 5715 5715 5715 5716 5716 5717 5718 5718 5719 5720 5720 5720 5721 5721 5722
5754 5756 5755 5754 5754 5754 5753 5752 5750 5748 5745 5742 5738 5735 5731 5728 5725 5722 5720 5718 5716 5715 5714 5714 5713 5713 5712 5712 5712 5713 5713 5714 5714 5715 5716 5717 5717 5718 5718 5718 5719 5719 5720 5720
5750 5751 5752 5752 5752 5751 5750 5749 5747 5744 5742 5739 5735 5732 5728 5725 5723 5720 5718 5716 5714 5713 5713 5712 5712 5711 5711 5711 5712 5712 5713 5713 5714 5715 5716 5716 5717 5717 5718 5718 5718 5718 5718 5718
5748 5749 5749 5750 5750 5749 5748 5746 5744 5742 5739 5736 5733 5730 5726 5724 5721 5719 5716 5715 5713 5712 5712 5712 5711 5711 5711 5711 5712 5712 5713 5714 5714 5715 5716 5717 5717 5717 5717 5718 5718 5718 5718 5718
5746 5747 5748 5748 5747 5747 5746 5744 5742 5740 5737 5734 5731 5728 5725 5723 5720 5718 5716 5715 5713 5712 5712 5712 5711 5711 5712 5712 5713 5714 5714 5715 5715 5716 5717 5717 5717 5718 5718 5718 5718 5718 5718 5718
5744 5745 5746 5746 5746 5745 5744 5743 5741 5739 5736 5733 5730 5728 5725 5723 5720 5718 5717 5715 5714 5713 5712 5712 5712 5712 5713 5714 5714 5715 5715 5716 5717 5717 5718 5718 5719 5719 5719 5719 5719 5719 5719 5719
5743 5744 5744 5745 5745 5744 5743 5742 5740 5738 5736 5733 5731 5728 5726 5723 5721 5719 5718 5716 5715 5714 5714 5713 5714 5714 5715 5715 5716 5717 5717 5718 5718 5719 5719 5720 5720 5720 5721 5721 5721 5721 5721 5721
5742 5743 5744 5744 5744 5743 5742 5741 5740 5738 5736 5733 5731 5729 5726 5724 5722 5721 5719 5718 5717 5716 5716 5716 5716 5716 5717 5718 5718 5719 5720 5720 5720 5721 5721 5722 5722 5722 5723 5723 5723 5723 5723 5723
5742 5742 5743 5743 5743 5743 5742 5741 5740 5738 5736 5734 5732 5730 5728 5726 5724 5723 5721 5720 5720 5719 5719 5719 5719 5719 5720 5720 5721 5722 5722 5723 5723 5724 5724 5724 5725 5725 5726 5726 5726 5726 5726 5726
5741 5742 5742 5743 5743 5742 5742 5741 5739 5738 5737 5735 5734 5732 5730 5729 5727 5726 5724 5723 5723 5723 5722 5722 5722 5723 5723 5723 5724 5725 5725 5726 5726 5727 5727 5728 5728 5729 5729 5729 5729 5730 5730 5729
5741 5741 5742 5742 5742 5742 5741 5740 5739 5739 5738 5736 5735 5734 5733 5732 5730 5729 5728 5727 5726 5726 5726 5726 5726 5727 5727 5727 5728 5728 5729 5730 5730 5731 5732 5732 5733 5733 5733 5733 5733 5733 5733 5733
5740 5741 5741 5741 5741 5741 5741 5741 5740 5739 5739 5738 5737 5736 5736 5735 5734 5733 5732 5731 5730 5730 5730 5730 5731 5731 5731 5732 5732 5733 5733 5734 5735 5735 5736 5736 5737 5737 5737 5737 5737 5737 5737 5736
5739 5740 5740 5741 5741 5741 5741 5741 5741 5740 5740 5740 5739 5739 5738 5738 5737 5736 5736 5735 5735 5735 5735 5735 5735 5736 5736 5736 5737 5737 5738 5738 5739 5740 5740 5741 5741 5741 5741 5741 5741 5741 5740 5740
5738 5739 5739 5740 5741 5741 5742 5742 5742 5742 5742 5742 5742 5741 5741 5741 5741 5740 5739 5739 5740 5739 5739 5739 5740 5740 5741 5741 5741 5742 5742 5743 5743 5744 5744 5745 5745 5745 5745 5745 5745 5744 5744 5743
5737 5738 5739 5739 5740 5741 5742 5742 5743 5743 5743 5743 5744 5744 5744 5744 5744 5744 5743 5744 5744 5743 5744 5744 5744 5745 5745 5745 5745 5746 5746 5747 5747 5748 5748 5748 5749 5749 5749 5748 5748 5748 5748 5747
5736 5737 5738 5739 5740 5741 5742 5743 5744 5744 5745 5745 5746 5746 5746 5747 5747 5747 5747 5748 5747 5747 5748 5748 5748 5749 5749 5749 5749 5750 5750 5751 5751 5751 5752 5752 5752 5752 5752 5752 5752 5751 5751 5750
5734 5736 5737 5739 5740 5741 5742 5743 5744 5745 5746 5747 5747 5748 5748 5749 5749 5750 5750 5751 5751 5751 5752 5752 5752 5753 5753 5753 5753 5754 5754 5754 5755 5755 5755 5755 5755 5755 5755 5755 5755 5754 5754 5753
5732 5734 5735 5737 5739 5740 5742 5743 5744 5746 5747 5748 5748 5749 5750 5751 5751 5752 5753 5753 5754 5754 5755 5755 5755 5756 5756 5757 5757 5757 5758 5758 5758 5758 5758 5759 5759 5758 5758 5758 5758 5757 5756 5755
5729 5731 5733 5735 5737 5739 5741 5742 5744 5745 5747 5748 5749 5750 5751 5752 5753 5754 5754 5755 5756 5756 5757 5757 5758 5758 5759 5760 5760 5760 5761 5761 5761 5761 5761 5761 5761 5761 5761 5760 5760 5759 5758 5757
5725 5727 5729 5732 5734 5737 5739 5741 5742 5744 5746 5748 5749 5750 5751 5752 5753 5755 5756 5756 5757 5758 5759 5759 5760 5761 5761 5762 5762 5763 5763 5763 5763 5764 5764 5764 5763 5763 5763 5762 5761 5761 5760 5759